Tracking 17630 objects as of 24-May-2016
HD Live streaming from Space Station
objects crossing your sky now

COSMOS 482 DESCENT CRAFT

Track COSMOS 482 DESCENT CRAFT now!
10-day predictions
COSMOS 482 DESCENT CRAFT is classified as:


NORAD ID: 6073
Int'l Code: 1972-023E
Perigee: 210.4 km
Apogee: 2,768.7 km
Inclination: 52.1 °
Period: 115.6 minutes
Semi major axis: 7860 km
RCS: 0.7153 m2 (medium)
Launch date: March 31, 1972
Source: Commonwealth of Independent States (former USSR) (CIS)
Launch site: TYURATAM MISSILE AND SPACE COMPLEX (TTMTR)
Your satellite tracking list
Your tracking list is empty





NASA's NSSDC Master Catalog

Two Line Element Set (TLE):
1 06073U 72023E   16145.54124850  .00028166  55118-5  14299-3 0  9992
2 06073  52.0606 243.8606 1627295 131.8844 243.2857 12.45736952312255
Source of the keplerian elements: AFSPC

N2YO: 524